Time,TemperatureF,DewpointF,PressureIn,WindDirection,WindDirectionDegrees,WindSpeedMPH,WindSpeedGustMPH,Humidity,HourlyPrecipIn,Conditions,Clouds,dailyrainin,SoftwareType,DateUTC
2013-01-17 00:02:00,38.0,28.0,-100.00,NNW,345,10.0,13.0,68,-99.99,,,-99.99,,2013-01-17 06:02:00,
2013-01-17 00:12:00,38.0,28.0,-100.00,NNW,345,10.0,14.0,69,-99.99,,,-99.99,,2013-01-17 06:12:00,
2013-01-17 00:32:00,38.0,29.0,-100.00,North,355,11.0,16.0,69,-99.99,,,-99.99,,2013-01-17 06:32:00,
2013-01-17 00:42:00,38.0,29.0,-100.00,North,5,12.0,16.0,69,-99.99,,,-99.99,,2013-01-17 06:42:00,
2013-01-17 01:02:00,38.0,29.0,-100.00,North,5,13.0,16.0,69,-99.99,,,-99.99,,2013-01-17 07:02:00,
2013-01-17 01:12:00,37.0,29.0,-100.00,North,0,12.0,17.0,70,-99.99,,,-99.99,,2013-01-17 07:12:00,
2013-01-17 01:32:00,37.0,29.0,-100.00,North,0,11.0,14.0,72,-99.99,,,-99.99,,2013-01-17 07:32:00,
2013-01-17 01:42:00,36.0,28.0,-100.00,North,355,11.0,14.0,72,-99.99,,,-99.99,,2013-01-17 07:42:00,
2013-01-17 02:02:00,37.0,29.0,-100.00,North,5,10.0,15.0,73,-99.99,,,-99.99,,2013-01-17 08:02:00,
2013-01-17 02:12:00,37.0,30.0,-100.00,North,0,11.0,16.0,74,-99.99,,,-99.99,,2013-01-17 08:12:00,
2013-01-17 02:32:00,36.0,29.0,-100.00,North,355,10.0,15.0,74,-99.99,,,-99.99,,2013-01-17 08:32:00,
2013-01-17 02:43:00,35.0,28.0,-100.00,North,350,11.0,14.0,75,-99.99,,,-99.99,,2013-01-17 08:43:00,
2013-01-17 03:02:00,35.0,29.0,-100.00,North,355,13.0,16.0,77,-99.99,,,-99.99,,2013-01-17 09:02:00,
2013-01-17 03:12:00,35.0,29.0,-100.00,North,355,11.0,16.0,78,-99.99,,,-99.99,,2013-01-17 09:12:00,
2013-01-17 03:32:00,35.0,29.0,-100.00,North,355,10.0,14.0,79,-99.99,,,-99.99,,2013-01-17 09:32:00,
2013-01-17 03:42:00,34.0,29.0,-100.00,North,350,10.0,12.0,80,-99.99,,,-99.99,,2013-01-17 09:42:00,
2013-01-17 04:02:00,34.0,29.0,-100.00,North,350,8.0,12.0,81,-99.99,,,-99.99,,2013-01-17 10:02:00,
2013-01-17 04:12:00,34.0,29.0,-100.00,North,350,8.0,9.0,82,-99.99,,,-99.99,,2013-01-17 10:12:00,
2013-01-17 04:32:00,33.0,29.0,-100.00,NNW,335,10.0,13.0,84,-99.99,,,-99.99,,2013-01-17 10:32:00,
2013-01-17 04:42:00,33.0,29.0,-100.00,NNW,335,9.0,13.0,85,-99.99,,,-99.99,,2013-01-17 10:42:00,
2013-01-17 05:02:00,33.0,29.0,-100.00,NNW,345,10.0,14.0,86,-99.99,,,-99.99,,2013-01-17 11:02:00,
2013-01-17 05:12:00,33.0,29.0,-100.00,NNW,335,11.0,16.0,87,-99.99,,,-99.99,,2013-01-17 11:12:00,
2013-01-17 05:33:00,32.0,29.0,-100.00,NNW,345,11.0,16.0,88,-99.99,,,-99.99,,2013-01-17 11:33:00,
2013-01-17 05:42:00,32.0,29.0,-100.00,North,350,10.0,16.0,89,-99.99,,,-99.99,,2013-01-17 11:42:00,
2013-01-17 06:02:00,31.0,29.0,-100.00,North,355,9.0,14.0,90,-99.99,,,-99.99,,2013-01-17 12:02:00,
2013-01-17 06:12:00,31.0,29.0,-100.00,NNW,345,10.0,14.0,91,-99.99,,,-99.99,,2013-01-17 12:12:00,
2013-01-17 06:33:00,31.0,29.0,-100.00,NNW,345,8.0,11.0,93,-99.99,,,-99.99,,2013-01-17 12:33:00,
2013-01-17 06:43:00,30.0,28.0,-100.00,North,0,6.0,10.0,93,-99.99,,,-99.99,,2013-01-17 12:43:00,
2013-01-17 07:33:00,29.0,28.0,-100.00,North,350,6.0,7.0,95,-99.99,,,-99.99,,2013-01-17 13:33:00,
2013-01-17 07:43:00,29.0,28.0,-100.00,North,355,7.0,8.0,95,-99.99,,,-99.99,,2013-01-17 13:43:00,
2013-01-17 08:03:00,29.0,28.0,-100.00,NNW,345,6.0,9.0,96,-99.99,,,-99.99,,2013-01-17 14:03:00,
2013-01-17 08:12:00,29.0,28.0,-100.00,North,350,6.0,7.0,97,-99.99,,,-99.99,,2013-01-17 14:12:00,
2013-01-17 08:33:00,29.0,28.0,-100.00,North,355,6.0,8.0,98,-99.99,,,-99.99,,2013-01-17 14:33:00,
2013-01-17 08:43:00,29.0,28.0,-100.00,North,355,6.0,8.0,98,-99.99,,,-99.99,,2013-01-17 14:43:00,
2013-01-17 09:03:00,29.0,28.0,-100.00,NNW,340,6.0,7.0,98,-99.99,,,-99.99,,2013-01-17 15:03:00,
2013-01-17 09:12:00,29.0,29.0,-100.00,NNW,340,6.0,7.0,98,-99.99,,,-99.99,,2013-01-17 15:12:00,
2013-01-17 09:33:00,29.0,29.0,-100.00,North,350,7.0,9.0,98,-99.99,,,-99.99,,2013-01-17 15:33:00,
2013-01-17 09:43:00,30.0,29.0,-100.00,North,0,6.0,9.0,98,-99.99,,,-99.99,,2013-01-17 15:43:00,
2013-01-17 10:02:00,31.0,31.0,-100.00,North,355,6.0,9.0,98,-99.99,,,-99.99,,2013-01-17 16:02:00,
2013-01-17 10:12:00,31.0,31.0,-100.00,North,350,8.0,13.0,98,-99.99,,,-99.99,,2013-01-17 16:12:00,
2013-01-17 10:43:00,33.0,31.0,-100.00,NNE,30,6.0,11.0,91,-99.99,,,-99.99,,2013-01-17 16:43:00,
2013-01-17 11:03:00,34.0,30.0,-100.00,North,355,8.0,10.0,86,-99.99,,,-99.99,,2013-01-17 17:03:00,
2013-01-17 11:13:00,35.0,30.0,-100.00,North,0,6.0,11.0,83,-99.99,,,-99.99,,2013-01-17 17:13:00,
2013-01-17 11:33:00,36.0,29.0,-100.00,North,355,7.0,11.0,78,-99.99,,,-99.99,,2013-01-17 17:33:00,
2013-01-17 11:43:00,36.0,29.0,-100.00,North,0,9.0,14.0,75,-99.99,,,-99.99,,2013-01-17 17:43:00,
2013-01-17 12:12:00,38.0,29.0,-100.00,North,0,6.0,13.0,70,-99.99,,,-99.99,,2013-01-17 18:12:00,
2013-01-17 12:33:00,39.0,28.0,-100.00,North,5,7.0,9.0,66,-99.99,,,-99.99,,2013-01-17 18:33:00,
2013-01-17 13:12:00,41.0,28.0,-100.00,NNE,25,7.0,11.0,60,-99.99,,,-99.99,,2013-01-17 19:12:00,
2013-01-17 13:33:00,42.0,28.0,-100.00,North,355,7.0,11.0,58,-99.99,,,-99.99,,2013-01-17 19:33:00,
2013-01-17 13:43:00,42.0,29.0,-100.00,North,5,6.0,11.0,58,-99.99,,,-99.99,,2013-01-17 19:43:00,
2013-01-17 14:03:00,44.0,29.0,-100.00,West,280,4.0,6.0,55,-99.99,,,-99.99,,2013-01-17 20:03:00,
2013-01-17 14:12:00,45.0,29.0,-100.00,North,5,5.0,6.0,54,-99.99,,,-99.99,,2013-01-17 20:12:00,
2013-01-17 14:33:00,45.0,29.0,-100.00,NNW,345,4.0,7.0,54,-99.99,,,-99.99,,2013-01-17 20:33:00,
2013-01-17 14:43:00,46.0,30.0,-100.00,NW,305,4.0,6.0,52,-99.99,,,-99.99,,2013-01-17 20:43:00,
2013-01-17 15:03:00,48.0,30.0,-100.00,NW,310,5.0,8.0,50,-99.99,,,-99.99,,2013-01-17 21:03:00,
2013-01-17 15:13:00,47.0,29.0,-100.00,West,280,4.0,9.0,50,-99.99,,,-99.99,,2013-01-17 21:13:00,
2013-01-17 15:33:00,48.0,31.0,-100.00,West,275,6.0,10.0,51,-99.99,,,-99.99,,2013-01-17 21:33:00,
2013-01-17 16:03:00,48.0,30.0,-100.00,WNW,295,9.0,14.0,51,-99.99,,,-99.99,,2013-01-17 22:03:00,
2013-01-17 16:12:00,48.0,31.0,-100.00,NW,305,4.0,13.0,51,-99.99,,,-99.99,,2013-01-17 22:12:00,
2013-01-17 17:12:00,48.0,30.0,-100.00,WNW,300,5.0,7.0,50,-99.99,,,-99.99,,2013-01-17 23:12:00,
2013-01-17 17:33:00,48.0,30.0,-100.00,West,280,6.0,8.0,50,-99.99,,,-99.99,,2013-01-17 23:33:00,
2013-01-17 17:43:00,48.0,30.0,-100.00,NW,305,4.0,6.0,50,-99.99,,,-99.99,,2013-01-17 23:43:00,
2013-01-17 18:03:00,47.0,29.0,-100.00,West,270,4.0,5.0,50,-99.99,,,-99.99,,2013-01-18 00:03:00,
2013-01-17 18:12:00,46.0,29.0,-100.00,West,265,1.0,4.0,51,-99.99,,,-99.99,,2013-01-18 00:12:00,
2013-01-17 18:32:00,44.0,29.0,-100.00,West,270,2.0,6.0,54,-99.99,,,-99.99,,2013-01-18 00:32:00,
2013-01-17 18:42:00,43.0,28.0,-100.00,WSW,240,1.0,3.0,55,-99.99,,,-99.99,,2013-01-18 00:42:00,
2013-01-17 19:03:00,43.0,29.0,-100.00,SW,215,4.0,4.0,57,-99.99,,,-99.99,,2013-01-18 01:03:00,
2013-01-17 19:12:00,43.0,29.0,-100.00,SW,225,4.0,4.0,57,-99.99,,,-99.99,,2013-01-18 01:12:00,
2013-01-17 19:43:00,43.0,29.0,-100.00,SSW,205,8.0,10.0,58,-99.99,,,-99.99,,2013-01-18 01:43:00,
2013-01-17 20:03:00,40.0,28.0,-100.00,South,185,6.0,8.0,61,-99.99,,,-99.99,,2013-01-18 02:03:00,
2013-01-17 20:12:00,40.0,28.0,-100.00,South,185,7.0,8.0,62,-99.99,,,-99.99,,2013-01-18 02:12:00,
2013-01-17 20:33:00,39.0,29.0,-100.00,South,185,7.0,9.0,65,-99.99,,,-99.99,,2013-01-18 02:33:00,
2013-01-17 20:42:00,39.0,29.0,-100.00,South,185,5.0,9.0,65,-99.99,,,-99.99,,2013-01-18 02:42:00,
2013-01-17 21:02:00,39.0,29.0,-100.00,South,185,6.0,8.0,67,-99.99,,,-99.99,,2013-01-18 03:02:00,
2013-01-17 21:33:00,39.0,29.0,-100.00,South,170,7.0,9.0,69,-99.99,,,-99.99,,2013-01-18 03:33:00,
2013-01-17 21:42:00,39.0,29.0,-100.00,SSE,160,7.0,9.0,69,-99.99,,,-99.99,,2013-01-18 03:42:00,
2013-01-17 22:02:00,38.0,29.0,-100.00,South,170,9.0,10.0,70,-99.99,,,-99.99,,2013-01-18 04:02:00,
2013-01-17 22:12:00,38.0,29.0,-100.00,South,175,8.0,11.0,71,-99.99,,,-99.99,,2013-01-18 04:12:00,
2013-01-17 22:33:00,37.0,29.0,-100.00,South,170,8.0,12.0,72,-99.99,,,-99.99,,2013-01-18 04:33:00,
2013-01-17 22:42:00,37.0,29.0,-100.00,South,185,9.0,11.0,73,-99.99,,,-99.99,,2013-01-18 04:42:00,
2013-01-17 22:53:00,36.0,29.0,-100.00,South,180,8.0,11.0,74,-99.99,,,-99.99,,2013-01-18 04:53:00,
2013-01-17 23:03:00,36.0,29.0,-100.00,South,180,8.0,11.0,74,-99.99,,,-99.99,,2013-01-18 05:03:00,
2013-01-17 23:12:00,36.0,28.0,-100.00,South,175,8.0,10.0,75,-99.99,,,-99.99,,2013-01-18 05:12:00,
2013-01-17 23:33:00,35.0,28.0,-100.00,South,185,9.0,11.0,77,-99.99,,,-99.99,,2013-01-18 05:33:00,
2013-01-17 23:42:00,35.0,28.0,-100.00,South,175,9.0,11.0,78,-99.99,,,-99.99,,2013-01-18 05:42:00,